Location: Newark
(54.2500°N, 9.1833°E)
Time: 01:51:55
(UTC+00:00)

Transit 4A - Pass Details

Date: 21 December 2019
Orbit: 871 x 973 km, 66.8° (Epoch: 23 January)

Event Time Altitude Azimuth Distance (km) Brightness Sun altitude
Rises 20:12:23 0° 312° (NW) 3,520 11.6 -43.4°
Reaches altitude 10° 20:15:08 10° 321° (NW) 2,564 10.7 -43.7°
Enters shadow 20:16:01 14° 326° (NW) 2,275 10.3 -43.9°
